Location: Ellerstadt
(49.4644°N, 8.2615°E)
Time: 20:32:32
(UTC+00:00)

Vanguard 1 - Pass Details

Date: 14 June 2021
Orbit: 651 x 3831 km, 34.2° (Epoch: 29 July)

Event Time Altitude Azimuth Distance (km) Brightness Sun altitude
Rises 20:05:56 0° 206° (SSW) 7,962 14.5 -4.6°
Reaches altitude 10° 20:13:02 10° 196° (SSW) 6,863 14.1 -5.4°
Maximum altitude 20:28:51 26° 150° (SSE) 4,917 13.0 -7.1°
Drops below altitude 10° 20:40:40 10° 102° (ESE) 5,120 13.3 -8.3°
Sets 20:44:50 0° 91° (E) 5,677 13.6 -8.8°
